Time,TemperatureF,DewpointF,PressureIn,WindDirection,WindDirectionDegrees,WindSpeedMPH,WindSpeedGustMPH,Humidity,HourlyPrecipIn,Conditions,Clouds,dailyrainin,SoftwareType,DateUTC
2014-03-19 00:23:00,60.0,54.0,30.04,NNW,347,0.0,1.0,80,0.00,,,-99.99,,2014-03-19 04:23:00,
2014-03-19 00:52:00,59.0,55.0,30.04,NNW,347,0.0,2.0,86,0.00,,,-99.99,,2014-03-19 04:52:00,
2014-03-19 01:23:00,61.0,58.0,30.04,East,83,3.0,7.0,89,0.00,,,-99.99,,2014-03-19 05:23:00,
2014-03-19 01:52:00,61.0,58.0,30.04,ENE,78,7.0,9.0,89,-99.99,,,-99.99,,2014-03-19 05:52:00,
2014-03-19 02:22:00,61.0,58.0,30.03,East,85,6.0,9.0,89,-99.99,,,-99.99,,2014-03-19 06:22:00,
2014-03-19 02:52:00,60.0,57.0,30.03,East,83,4.0,7.0,89,0.00,,,-99.99,,2014-03-19 06:52:00,
2014-03-19 03:22:00,60.0,57.0,30.03,ENE,68,4.0,8.0,90,0.00,,,-99.99,,2014-03-19 07:22:00,
2014-03-19 03:52:00,60.0,57.0,30.02,ENE,70,2.0,5.0,90,-99.99,,,-99.99,,2014-03-19 07:52:00,
2014-03-19 04:21:00,59.0,56.0,30.02,ENE,70,0.0,3.0,90,-99.99,,,-99.99,,2014-03-19 08:21:00,
2014-03-19 04:52:00,59.0,56.0,30.02,ENE,70,0.0,2.0,90,0.00,,,-99.99,,2014-03-19 08:52:00,
2014-03-19 05:22:00,58.0,55.0,30.02,ENE,70,0.0,0.0,90,-99.99,,,-99.99,,2014-03-19 09:22:00,
2014-03-19 05:52:00,58.0,55.0,30.02,ENE,70,0.0,3.0,91,-99.99,,,-99.99,,2014-03-19 09:52:00,
2014-03-19 06:23:00,58.0,55.0,30.02,ENE,70,0.0,3.0,90,0.00,,,-99.99,,2014-03-19 10:23:00,
2014-03-19 06:52:00,57.0,54.0,30.03,ENE,70,0.0,0.0,91,0.00,,,-99.99,,2014-03-19 10:52:00,
2014-03-19 07:22:00,56.0,53.0,30.05,ENE,70,0.0,0.0,91,0.00,,,-99.99,,2014-03-19 11:22:00,
2014-03-19 07:52:00,56.0,53.0,30.06,ENE,70,0.0,2.0,91,0.00,,,-99.99,,2014-03-19 11:52:00,
2014-03-19 08:22:00,56.0,53.0,30.06,ENE,70,1.0,3.0,90,0.00,,,-99.99,,2014-03-19 12:22:00,
2014-03-19 08:52:00,57.0,54.0,30.07,NE,47,1.0,5.0,90,0.00,,,-99.99,,2014-03-19 12:52:00,
2014-03-19 09:22:00,58.0,55.0,30.09,NNE,20,3.0,7.0,90,0.00,,,-99.99,,2014-03-19 13:22:00,
2014-03-19 09:52:00,62.0,59.0,30.09,NNE,15,4.0,7.0,90,0.00,,,-99.99,,2014-03-19 13:52:00,
2014-03-19 10:21:00,62.0,58.0,30.09,ENE,57,3.0,7.0,87,0.00,,,-99.99,,2014-03-19 14:21:00,
2014-03-19 10:52:00,64.0,59.0,30.10,North,9,1.0,4.0,84,0.00,,,-99.99,,2014-03-19 14:52:00,
2014-03-19 11:22:00,67.0,61.0,30.11,NE,39,2.0,5.0,80,0.00,,,-99.99,,2014-03-19 15:22:00,
2014-03-19 11:53:00,69.0,61.0,30.11,ENE,57,3.0,7.0,75,0.00,,,-99.99,,2014-03-19 15:53:00,
2014-03-19 12:23:00,70.0,61.0,30.10,NE,48,2.0,5.0,73,0.00,,,-99.99,,2014-03-19 16:23:00,
2014-03-19 12:53:00,72.0,60.0,30.10,East,82,2.0,4.0,66,0.00,,,-99.99,,2014-03-19 16:53:00,
2014-03-19 13:22:00,74.0,60.0,30.09,East,80,1.0,3.0,62,0.00,,,-99.99,,2014-03-19 17:22:00,
2014-03-19 13:52:00,77.0,62.0,30.08,East,82,1.0,4.0,59,0.00,,,-99.99,,2014-03-19 17:52:00,
2014-03-19 14:22:00,77.0,60.0,30.06,East,96,4.0,8.0,56,0.00,,,-99.99,,2014-03-19 18:22:00,
2014-03-19 14:52:00,76.0,60.0,30.05,East,88,2.0,4.0,58,0.00,,,-99.99,,2014-03-19 18:52:00,
2014-03-19 15:22:00,76.0,58.0,30.04,East,92,2.0,4.0,54,0.00,,,-99.99,,2014-03-19 19:22:00,
2014-03-19 15:52:00,77.0,58.0,30.04,ENE,75,0.0,4.0,52,0.00,,,-99.99,,2014-03-19 19:52:00,
2014-03-19 16:22:00,76.0,58.0,30.03,NE,42,1.0,4.0,53,0.00,,,-99.99,,2014-03-19 20:22:00,
2014-03-19 16:52:00,76.0,59.0,30.02,ENE,61,3.0,7.0,55,0.00,,,-99.99,,2014-03-19 20:52:00,
2014-03-19 17:22:00,77.0,58.0,30.01,NE,52,3.0,5.0,52,0.00,,,-99.99,,2014-03-19 21:22:00,
2014-03-19 17:54:00,79.0,57.0,30.01,WNW,294,0.0,3.0,47,0.00,,,-99.99,,2014-03-19 21:54:00,
2014-03-19 18:23:00,79.0,57.0,30.02,NNW,335,2.0,6.0,47,0.00,,,-99.99,,2014-03-19 22:23:00,
2014-03-19 19:52:00,77.0,58.0,30.01,NNE,17,0.0,1.0,52,0.00,,,-99.99,,2014-03-19 23:52:00,
2014-03-19 20:22:00,73.0,58.0,30.02,NNE,17,0.0,0.0,60,0.00,,,-99.99,,2014-03-20 00:22:00,
2014-03-19 20:52:00,70.0,59.0,30.03,NW,307,2.0,6.0,67,0.00,,,-99.99,,2014-03-20 00:52:00,
2014-03-19 21:53:00,68.0,59.0,30.04,West,273,1.0,5.0,73,0.00,,,-99.99,,2014-03-20 01:53:00,
2014-03-19 22:22:00,67.0,60.0,30.06,ENE,62,2.0,9.0,77,-99.99,,,-99.99,,2014-03-20 02:22:00,
2014-03-19 23:22:00,66.0,61.0,30.06,East,90,2.0,7.0,83,0.00,,,-99.99,,2014-03-20 03:22:00,
2014-03-19 23:53:00,65.0,60.0,30.06,East,86,5.0,8.0,85,0.00,,,-99.99,,2014-03-20 03:53:00,